Debrecen, Hungary

4:33 AM CEST on September 23, 2017 (GMT +0200)
Debrecen

Weather History for LHDC - May, 2014

Change the Weather History Date:

Sunday, May 11, 2014

  Actual Average Record
Temperature  
Mean Temperature 58 °F -  
Max Temperature 71 °F 73 °F - ()
Min Temperature 46 °F 52 °F - ()
Degree Days  
Heating Degree Days 6    
Growing Degree Days 8 (Base 50)    
Moisture  
Dew Point 49 °F    
Average Humidity 61    
Maximum Humidity 99    
Minimum Humidity 35    
Precipitation  
Precipitation 0.35 in 0.09 in - ()
Sea Level Pressure  
Sea Level Pressure 29.83 in    
Wind  
Wind Speed 6 mph ()    
Max Wind Speed 14 mph    
Max Gust Speed 44 mph    
Visibility 10.0 miles    
Events Rain , Thunderstorm    
T = Trace of Precipitation, MM = Missing Value Source: Averaged Metar Reports

Daily Weather History Graph

Daily Weather History Graph

Search for Another Location

Airport or City:

Trip Planner

Search our weather history database for the weather conditions in past years. The results will help you decide how hot, cold, wet, or windy it might be!

Date:

Astronomy

May. 11, 2014 Rise Set
Actual Time 5:02 AM CEST 7:58 PM CEST
Civil Twilight 4:26 AM CEST 8:34 PM CEST
Nautical Twilight 3:40 AM CEST 9:20 PM CEST
Astronomical Twilight 2:45 AM CEST 10:16 PM CEST
Moon 4:21 PM CEST (5/11) 3:13 AM CEST (5/11)
Length of Visible Light 16h 08m
Length of Day
14h 56m
Waxing Gibbous, 87% of the Moon is Illuminated
May 11
Waxing Gibbous
May 14
Full
May 21
Last Quarter
May 28
New
Jun 5
First Quarter

Hourly Weather History & Observations

Time (CEST) Temp. Dew Point Humidity Pressure Visibility Wind Dir Wind Speed Gust Speed Precip Events Conditions
12:00 AM 51 °F 44 °F 68% 29.91 in - South 2.2 mph - -  
1:00 AM 49 °F 43 °F 72% 29.90 in - SSW 2.2 mph - -  
2:00 AM 48 °F 42 °F 73% 29.90 in - SSE 4.5 mph - -  
3:00 AM 47 °F 41 °F 74% 29.90 in - South 4.5 mph - -  
4:00 AM 47 °F 42 °F 75% 29.89 in - SSE 4.5 mph - -  
4:45 AM 48.2 °F 41.0 °F 76% 29.89 in - South 3.5 mph - N/A   Clear
5:00 AM 47 °F 42 °F 75% 29.88 in 19 mi South 2.2 mph - -   Partly Cloudy
5:45 AM 48.2 °F 42.8 °F 82% 29.89 in - South 4.6 mph - N/A   Clear
6:00 AM 48 °F 42 °F 75% 29.89 in 19 mi South 4.5 mph - -   Partly Cloudy
6:15 AM 50.0 °F 44.6 °F 82% 29.89 in - South 4.6 mph - N/A   Clear
6:45 AM 53.6 °F 44.6 °F 72% 29.89 in - SSE 5.8 mph - N/A   Clear
7:00 AM 54 °F 45 °F 63% 29.88 in 19 mi SSE 6.7 mph - -   Partly Cloudy
7:00 AM - - N/A% - - South 8.1 mph - N/A   Clear
7:15 AM 57.2 °F 44.6 °F 63% 29.89 in 6.2 mi South 6.9 mph - N/A   Scattered Clouds
7:45 AM 59.0 °F 44.6 °F 59% 29.89 in - South 9.2 mph - N/A   Clear
8:00 AM 58 °F 44 °F 50% 29.87 in 22 mi South 8.9 mph - -   Partly Cloudy
8:15 AM 62.6 °F 46.4 °F 55% 29.86 in - South 9.2 mph - N/A   Clear
8:45 AM 64.4 °F 44.6 °F 49% 29.86 in - South 10.4 mph - N/A   Clear
9:00 AM 65 °F 44 °F 36% 29.86 in 25 mi South 11.2 mph - -   Partly Cloudy
9:15 AM 68.0 °F 44.6 °F 43% 29.86 in - South 8.1 mph - N/A   Clear
9:45 AM 68.0 °F 46.4 °F 46% 29.89 in 6.2 mi SSW 10.4 mph - N/A   Scattered Clouds
10:00 AM 67 °F 46 °F 35% 29.87 in 25 mi SSW 8.9 mph - -   Partly Cloudy
10:00 AM - - N/A% - - South 10.4 mph - N/A Rain Rain Showers
10:15 AM 68.0 °F 48.2 °F 49% 29.89 in 6.2 mi SSW 9.2 mph - N/A   Mostly Cloudy
10:45 AM 68.0 °F 46.4 °F 46% 29.89 in - SW 10.4 mph - N/A   Clear
10:57 AM 64.4 °F 46.4 °F 52% 29.89 in - West 11.5 mph - N/A   Unknown
11:00 AM 67 °F 46 °F 35% 29.88 in 25 mi SW 11.2 mph - -   Partly Cloudy
11:15 AM 62.6 °F 50.0 °F 63% 29.89 in 6.2 mi WNW 12.7 mph - N/A Rain Light Rain
11:45 AM 60.8 °F 53.6 °F 77% 29.89 in 6.2 mi NW 6.9 mph - N/A Rain Light Rain
12:00 PM 60 °F 54 °F 75% 29.88 in 16 mi NW 6.7 mph - - Rain Light Rain
12:15 PM 62.6 °F 55.4 °F 77% 29.86 in - NNW 5.8 mph - N/A   Clear
12:45 PM 64.4 °F 55.4 °F 73% 29.86 in 6.2 mi North 4.6 mph - N/A   Mostly Cloudy
1:00 PM 65 °F 55 °F 62% 29.85 in 22 mi North 4.5 mph - - Rain Light Rain
1:00 PM - - N/A% - - SSW 6.9 mph - N/A Rain , Thunderstorm Rain Showers
1:15 PM 66.2 °F 53.6 °F 64% 29.86 in 6.2 mi North 4.6 mph - N/A   Mostly Cloudy
1:45 PM 66.2 °F 53.6 °F 64% 29.83 in 6.2 mi NNE 5.8 mph - N/A   Mostly Cloudy
2:00 PM 66 °F 53 °F 54% 29.83 in 22 mi NNE 4.5 mph - -   Partly Cloudy
2:15 PM 64.4 °F 53.6 °F 68% 29.83 in 6.2 mi NE 9.2 mph - N/A   Mostly Cloudy
2:45 PM 64.4 °F 55.4 °F 73% 29.80 in 6.2 mi NE 12.7 mph - N/A   Mostly Cloudy
3:00 PM 65 °F 55 °F 61% 29.80 in 19 mi NE 11.2 mph - -   Partly Cloudy
3:00 PM - - N/A% - 6.2 mi NE 10.4 mph - N/A   Mostly Cloudy
3:15 PM 66.2 °F 53.6 °F 64% 29.77 in - ENE 10.4 mph - N/A   Clear
3:45 PM 69.8 °F 51.8 °F 53% 29.77 in - ENE 13.8 mph - N/A   Clear
4:00 PM 69 °F 52 °F 45% 29.75 in 22 mi ENE 13.4 mph - -   Partly Cloudy
4:15 PM 71.6 °F 53.6 °F 53% 29.74 in - East 13.8 mph - N/A   Clear
5:00 PM 71 °F 52 °F 41% 29.71 in - East 13.4 mph - -  
6:00 PM 70 °F 51 °F 40% 29.69 in - East 13.4 mph - -  
6:00 PM - - N/A% - - North - - N/A   Unknown
7:00 PM 68 °F 52 °F 45% 29.65 in - East 8.9 mph - -  
8:00 PM 66 °F 53 °F 54% 29.64 in - ENE 4.5 mph - -  
9:50 PM 66.2 °F 57.2 °F 73% 29.62 in - SSE 11.5 mph 43.7 mph N/A   Unknown
10:00 PM 67 °F 57 °F 62% 29.58 in - SE 8.9 mph - -  
11:00 PM 59 °F 59 °F 99% 29.65 in - North 4.5 mph - -